Location: ActonStarParty
(42.4766°N, 71.4538°W)
Time: 05:36:31
(UTC-05:00)

Daily predictions for brighter satellites

Satellite Brightness Start Highest point End
(mag) Time Altitude Azimuth Time Altitude Azimuth Time Altitude Azimuth
CZ-4C R/B 4.3 03:04:15 31° ENE 03:04:15 31° ENE 03:09:41 10° ESE
Cosmos 1709 Rocket 4.4 04:03:09 10° S 04:09:19 61° E 04:15:36 10° NNE
COSMOS 2406 3.7 04:18:02 53° SE 04:18:02 53° SE 04:22:20 10° SSE
ATLAS CENTAUR R/B 3.5 04:17:58 23° ENE 04:17:58 23° ENE 04:20:48 10° ESE
Cosmos 371 Rocket 4.4 04:21:22 39° NE 04:21:49 40° ENE 04:26:24 10° SE
USA 234 3.9 04:21:38 10° NE 04:27:02 39° NNW 04:27:02 39° NNW
COSMOS 2455 4.3 04:30:53 24° N 04:30:53 24° N 04:33:34 10° NNE
Cosmos 1140 Rocket 4.5 04:31:28 36° NNE 04:31:28 36° NNE 04:34:30 10° NNE
IDEFIX/ARIANE 42P 3.9 04:27:19 10° NNE 04:32:16 39° E 04:37:11 10° SSE
GPS 2-04 Rocket1 4.4 04:41:38 28° SSE 04:41:38 28° SSE 04:44:35 10° ESE
BREEZE-M DEB (TANK) 4.0 04:40:55 46° S 04:41:43 53° SE 04:51:18 10° ENE
CENTAUR R/B 4.2 04:44:06 20° NNW 04:44:06 20° NNW 04:48:40 10° NNE
Cosmos 1850 Rocket 4.4 04:39:44 10° S 04:44:54 62° ESE 04:50:08 10° NNE
Abrixas rocket 4.3 04:48:42 26° E 04:48:42 26° E 04:50:22 10° E
SKYMED 2 3.8 04:45:27 10° SSE 04:49:45 67° ENE 04:50:35 53° NNE
CZ-4C R/B 2.8 04:49:29 46° NW 04:51:52 70° WSW 04:59:51 10° SSE
Shenzhou-11 Module 4.2 04:55:24 25° E 04:55:24 25° E 04:56:51 10° E
EO 1 Del DPAF 4.3 04:50:50 10° SE 04:54:27 44° ENE 04:55:58 29° NNE
NOAA 6 4.2 04:49:35 10° NNE 04:54:48 74° ESE 04:59:59 10° S
Cosmos 2074 Rocket 4.5 04:50:52 10° S 04:56:56 60° E 05:03:03 10° NNE
Cosmos 1076 Rocket 4.4 04:59:32 37° S 04:59:32 37° S 05:02:09 10° S
SL-08 ROCKET BODY 4.2 04:53:29 10° S 04:59:20 80° W 05:05:17 10° N
SL-27 R/B 4.2 04:59:31 22° NNE 05:01:07 32° ENE 05:04:26 10° SE
Landsat 4 3.8 04:57:24 10° SSE 05:01:00 76° ESE 05:01:00 76° ESE
CZ-2C R/B 4.1 04:56:42 10° S 05:00:30 51° SW 05:00:30 51° SW
Cosmos 2278 Rocket 2.2 05:00:12 10° SSW 05:05:51 81° ESE 05:11:33 10° NNE
DELTA 2 R/B (1) 4.2 05:05:26 38° SW 05:06:24 41° SSW 05:11:37 10° SE
Cosmos 2181 Rocket 3.9 05:03:27 10° NNW 05:09:36 59° W 05:15:38 10° S
Cosmos 1315 Rocket 3.5 05:11:30 39° SSW 05:11:30 39° SSW 05:14:12 10° S
CZ-2C R/B 2.7 05:06:53 10° NNE 05:11:28 63° E 05:16:08 10° S
Cosmos 1570 Rocket 3.9 05:11:59 24° NNW 05:15:11 84° WSW 05:20:25 10° SSE
Cosmos 332 Rocket 3.8 05:15:39 47° WNW 05:16:36 55° WSW 05:21:20 10° S
Feng Yun 1-1 Rocket 4.0 05:11:39 10° NNE 05:17:04 77° WNW 05:22:26 10° SSW
Cosmos 1844 Rocket 3.5 05:18:35 30° NW 05:18:35 30° NW 05:22:46 10° N
USA 102 3.7 05:16:56 10° SSE 05:20:39 75° ENE 05:21:02 66° NNE
Tiangong 2 1.2 05:29:09 54° SW 05:29:40 67° SSE 05:32:51 10° E
Cosmos 1766 Rocket 3.5 05:27:17 21° NNW 05:30:07 57° W 05:34:26 10° S
NOSS 3-1 (C) 4.3 05:30:04 10° S 05:35:27 48° ESE 05:41:28 10° NE
Cosmos 1328 4.2 05:35:49 36° WNW 05:36:35 40° W 05:40:18 10° SSW
COSMO-SKYMED 1 3.1 05:33:52 10° SSW 05:37:51 36° W 05:39:11 29° WNW
Cosmos 1741 Rocket 4.2 05:33:09 10° SW 05:38:12 47° WNW 05:43:16 10° N
Cosmos 2327 Rocket 4.4 05:33:44 10° SSW 05:39:55 75° W 05:46:03 10° N
Meteor 1-16 Rocket 4.3 05:36:55 10° SSW 05:42:20 48° WNW 05:47:37 10° N
Okean-O 3.1 05:43:19 10° N 05:47:24 37° WNW 05:51:29 10° SW
Cosmos 1908 3.6 05:43:36 10° S 05:47:30 69° E 05:51:25 10° NNE
Cosmos 2082 Rocket 2.3 05:41:51 10° NNW 05:47:31 81° ENE 05:53:07 10° SSE
Cosmos 1726 3.8 05:45:20 10° SSE 05:48:46 36° E 05:52:12 10° NNE
Cosmos 2154 Rocket 4.1 05:42:36 10° S 05:48:47 81° E 05:55:03 10° N
Cosmos 1626 2.7 05:48:47 22° NW 05:50:32 35° W 05:53:57 10° SSW
Cosmos 1842 Rocket 3.6 05:48:03 10° S 05:52:31 90° ESE 05:57:02 10° N
Meteor 1-11 4.4 05:46:59 10° NNW 05:52:35 52° W 05:58:11 10° SSW
SJ-12 3.8 05:49:31 10° N 05:53:37 67° WNW 05:57:43 10° SSW
ATLAS CENTAUR R/B 2.0 05:54:16 22° WNW 05:56:23 38° WSW 06:00:26 10° S
Cosmos 1703 3.5 05:56:53 10° NNW 06:00:41 45° W 06:04:27 10° SSW
Cosmos 371 Rocket 4.5 06:00:05 18° WNW 06:01:58 23° W 06:05:44 10° SSW
Cosmos 2184 Rocket 4.4 06:02:27 10° SW 06:08:18 41° WNW 06:14:15 10° N
Radarsat Rocket 4.4 06:02:39 10° N 06:08:55 43° WNW 06:14:35 10° SW
Cosmos 2058 3.1 06:05:25 10° NNW 06:09:29 49° W 06:13:32 10° SSW
SMAP 3.2 06:06:03 10° NNE 06:10:44 80° ESE 06:15:22 10° S
Cosmos-2242 4.1 06:07:34 10° SW 06:10:57 22° WNW 06:14:20 10° NNW
Meteor 2-1 Rocket 4.1 06:05:57 10° SSW 06:11:26 68° WNW 06:17:01 10° N
USA 81 4.2 06:06:09 10° N 06:11:28 83° E 06:16:43 10° S
IDEFIX/ARIANE 42P 3.4 06:07:16 10° N 06:11:41 28° WNW 06:16:04 10° WSW
Cosmos 2297 3.7 06:07:16 10° SSW 06:12:59 72° WNW 06:18:44 10° NNE
Meteor 2-15 Rocket 4.5 06:09:41 10° N 06:15:48 87° E 06:21:52 10° S
Cosmos 1833 Rocket 2.8 06:10:22 10° NNW 06:15:54 57° WSW 06:21:24 10° S
GPS 2-04 Rocket1 4.3 06:16:28 10° WSW 06:20:08 29° S 06:23:52 10° SE
Cosmos 1484 Rocket 2.8 06:16:31 10° N 06:20:10 52° WNW 06:23:49 10° SSW
Abrixas rocket 3.2 06:21:08 13° W 06:23:41 32° SW 06:26:37 10° SSE
Cosmos 2151 3.6 06:21:43 10° NNW 06:25:39 35° W 06:29:33 10° SSW
Thor Agena Rocket 3.7 06:20:39 10° S 06:25:46 55° W 06:30:58 10° NNW
Nadezhda 3 Rocket 4.2 06:20:29 10° NNW 06:26:38 54° W 06:32:42 10° SSW
Meteor 2-14 Rocket 4.5 06:20:33 10° S 06:26:42 87° W 06:32:55 10° N
SL-8 R/B 3.8 06:22:56 10° WSW 06:27:44 83° SSE 06:32:35 10° ENE
CZ-4 R/B 1.4 06:23:57 10° NNE 06:28:05 90° W 06:32:06 10° SSW
Shenzhou-11 Module 1.9 06:27:07 11° W 06:30:02 86° SSW 06:33:04 10° E
USA 229 DEB 4.0 06:26:24 10° WSW 06:32:49 44° NW 06:39:27 10° NNE
USA 229 4.0 06:26:29 10° WSW 06:32:55 44° NW 06:39:33 10° NNE
Cosmos 1295 Rocket 4.4 06:28:15 10° SSW 06:34:22 71° W 06:40:29 10° N
Cosmos 1500 Rocket 4.2 06:30:27 10° NNW 06:34:28 35° W 06:38:26 10° SSW
NOSS 3-1 (A) 3.5 06:29:12 10° SSW 06:34:54 89° ESE 06:41:23 10° NE
SL-27 R/B 4.3 06:33:45 10° WNW 06:36:01 16° W 06:38:16 10° SW
CZ-4C R/B 4.5 06:35:47 10° WNW 06:39:34 15° WSW 06:43:29 10° SW
Milstar 3 4.4 06:36:40 10° WSW 06:42:04 25° S 06:47:32 10° SE
